Weather History for LIEE - April, 2014

Change the Weather History Date:

Thursday, April 17, 2014

  Actual Average Record
Temperature  
Mean Temperature 54 °F -  
Max Temperature 68 °F 69 °F 77 °F (2015)
Min Temperature 41 °F 51 °F 41 °F (1999)
Degree Days  
Heating Degree Days 10    
Growing Degree Days 4 (Base 50)    
Moisture  
Dew Point 40 °F    
Average Humidity 61    
Maximum Humidity 93    
Minimum Humidity 28    
Precipitation  
Precipitation 0.00 in 0.04 in - ()
Sea Level Pressure  
Sea Level Pressure 30.05 in    
Wind  
Wind Speed 6 mph ()    
Max Wind Speed 12 mph    
Max Gust Speed 16 mph    
Visibility 6.2 miles    
Events      
Averages and records for this station are not official NWS values.
T = Trace of Precipitation, MM = Missing Value Source: Averaged Metar Reports

Daily Weather History Graph

Daily Weather History Graph

Search for Another Location

Airport or City:

Trip Planner

Search our weather history database for the weather conditions in past years. The results will help you decide how hot, cold, wet, or windy it might be!

Date:

Astronomy

Apr. 17, 2014 Rise Set
Actual Time 6:44 AM CEST 8:03 PM CEST
Civil Twilight 6:16 AM CEST 8:30 PM CEST
Nautical Twilight 5:43 AM CEST 9:04 PM CEST
Astronomical Twilight 5:08 AM CEST 9:39 PM CEST
Moon 10:31 PM CEST (4/17) 8:04 AM CEST (4/17)
Length of Visible Light 14h 14m
Length of Day
13h 18m
Waning Gibbous, 95% of the Moon is Illuminated
Apr 17
Waning Gibbous
Apr 22
Last Quarter
Apr 29
New
May 7
First Quarter
May 14
Full

Hourly Weather History & Observations

Time (CEST) Temp. Windchill Dew Point Humidity Pressure Visibility Wind Dir Wind Speed Gust Speed Precip Events Conditions
12:20 AM 53.6 °F - 42.8 °F 67% 30.09 in 6.2 mi NNE 3.5 mph - N/A   Partly Cloudy
12:50 AM 50.0 °F - 39.2 °F 66% 30.09 in 6.2 mi NNW 3.5 mph - N/A   Partly Cloudy
1:20 AM 50.0 °F - 44.6 °F 82% 30.09 in 6.2 mi NNW 5.8 mph - N/A   Partly Cloudy
1:50 AM 50.0 °F - 44.6 °F 82% 30.09 in 6.2 mi NNW 5.8 mph - N/A   Partly Cloudy
2:20 AM 50.0 °F - 46.4 °F 87% 30.09 in 6.2 mi NW 5.8 mph - N/A   Scattered Clouds
2:50 AM 51.8 °F - 46.4 °F 82% 30.09 in 6.2 mi NW 5.8 mph - N/A   Partly Cloudy
3:20 AM 48.2 °F - 46.4 °F 93% 30.09 in 6.2 mi NW 8.1 mph - N/A   Partly Cloudy
3:50 AM 46.4 °F 42.4 °F 44.6 °F 93% 30.09 in - NW 8.1 mph - N/A   Clear
4:20 AM 46.4 °F 42.9 °F 42.8 °F 87% 30.09 in 6.2 mi NNW 6.9 mph - N/A   Partly Cloudy
4:50 AM 44.6 °F 40.2 °F 42.8 °F 93% 30.09 in - NW 8.1 mph - N/A   Clear
5:20 AM 44.6 °F 40.2 °F 41.0 °F 87% 30.06 in - NW 8.1 mph - N/A   Clear
5:50 AM 42.8 °F 37.5 °F 41.0 °F 93% 30.09 in - NW 9.2 mph - N/A   Clear
6:20 AM 42.8 °F 38.0 °F 39.2 °F 87% 30.09 in - NW 8.1 mph - N/A   Clear
6:50 AM 41.0 °F 35.2 °F 39.2 °F 93% 30.09 in - NW 9.2 mph - N/A   Clear
7:20 AM 42.8 °F 38.0 °F 41.0 °F 93% 30.09 in - NW 8.1 mph - N/A   Clear
7:50 AM 44.6 °F 42.2 °F 41.0 °F 87% 30.09 in - North 4.6 mph - N/A   Clear
8:20 AM 48.2 °F - 42.8 °F 82% 30.09 in - North 4.6 mph - N/A   Clear
8:50 AM 51.8 °F - 42.8 °F 71% 30.09 in - NNW 6.9 mph - N/A   Clear
9:20 AM 53.6 °F - 42.8 °F 67% 30.09 in - North 8.1 mph - N/A   Clear
9:50 AM 55.4 °F - 44.6 °F 67% 30.09 in - NW 9.2 mph - N/A   Clear
10:20 AM 57.2 °F - 44.6 °F 63% 30.09 in - WNW 9.2 mph - N/A   Clear
10:50 AM 59.0 °F - 37.4 °F 45% 30.09 in - WNW 8.1 mph - N/A   Clear
11:20 AM 62.6 °F - 33.8 °F 34% 30.09 in - NW 10.4 mph - N/A   Clear
11:50 AM 64.4 °F - 35.6 °F 34% 30.09 in - WNW 8.1 mph - N/A   Clear
12:20 PM 64.4 °F - 33.8 °F 32% 30.09 in 6.2 mi WNW 8.1 mph - N/A   Partly Cloudy
12:50 PM 64.4 °F - 33.8 °F 32% 30.06 in 6.2 mi WNW 8.1 mph - N/A   Partly Cloudy
1:20 PM 66.2 °F - 33.8 °F 30% 30.06 in 6.2 mi WNW 9.2 mph - N/A   Partly Cloudy
1:50 PM 66.2 °F - 35.6 °F 32% 30.04 in 6.2 mi WNW 9.2 mph - N/A   Partly Cloudy
2:20 PM 66.2 °F - 33.8 °F 30% 30.04 in 6.2 mi West 8.1 mph - N/A   Partly Cloudy
2:50 PM - - - N/A% 30.04 in 6.2 mi West 9.2 mph - N/A   Partly Cloudy
3:20 PM 68.0 °F - 35.6 °F 30% 30.04 in 6.2 mi Variable 5.8 mph - N/A   Partly Cloudy
3:50 PM 66.2 °F - 33.8 °F 30% 30.01 in 6.2 mi North 6.9 mph - N/A   Partly Cloudy
4:20 PM 66.2 °F - 39.2 °F 37% 30.01 in 6.2 mi Variable 4.6 mph 16.1 mph N/A   Partly Cloudy
4:50 PM 68.0 °F - 33.8 °F 28% 30.01 in 6.2 mi Variable 4.6 mph - N/A   Partly Cloudy
5:20 PM 64.4 °F - 41.0 °F 42% 29.98 in 6.2 mi SSE 11.5 mph - N/A   Partly Cloudy
5:50 PM 66.2 °F - 42.8 °F 43% 29.98 in 6.2 mi SE 6.9 mph - N/A   Partly Cloudy
6:20 PM 66.2 °F - 41.0 °F 40% 29.98 in 6.2 mi Variable 3.5 mph 15.0 mph N/A   Partly Cloudy
7:20 PM 62.6 °F - 37.4 °F 39% 29.98 in 6.2 mi NNW 11.5 mph - N/A   Partly Cloudy
7:50 PM 60.8 °F - 37.4 °F 42% 29.98 in 6.2 mi NW 10.4 mph - N/A   Partly Cloudy
8:20 PM 59.0 °F - 41.0 °F 51% 29.98 in 6.2 mi NNW 11.5 mph - N/A   Partly Cloudy
8:50 PM 57.2 °F - 42.8 °F 59% 30.01 in - WNW 9.2 mph - N/A   Clear
9:20 PM 57.2 °F - 41.0 °F 55% 30.01 in - WNW 10.4 mph - N/A   Clear
9:50 PM 57.2 °F - 39.2 °F 51% 30.01 in - WNW 10.4 mph - N/A   Clear
10:20 PM 53.6 °F - 39.2 °F 58% 30.01 in - North 8.1 mph - N/A   Clear
10:50 PM 51.8 °F - 41.0 °F 67% 30.01 in - North 5.8 mph - N/A   Clear
11:20 PM 50.0 °F - 42.8 °F 76% 30.01 in - North 6.9 mph - N/A   Clear
11:50 PM 50.0 °F - 42.8 °F 76% 30.01 in - NNW 6.9 mph - N/A   Clear